Regional Weather Roundup
Issued by NWS

Home | Current Version | Previous Version | Text Only | Print | Product List | Glossary Off
Versions: 1 2 3 4 5 6 7 8 9 10 11 12 13 14 15 16 17 18 19 20 21 22 23 24 25 26 27 28 29 30 31 32 33 34 35 36 37 38 39 40 41 42 43 44 45 46 47 48 49 50

657
ASUS45 KTFX 262110
RWRMT
MONTANA REGIONAL WEATHER ROUNDUP
NATIONAL WEATHER SERVICE GREAT FALLS MT
300 PM MDT SAT MAY 26 2018

NOTE: "FAIR" INDICATES FEW OR NO CLOUDS BELOW 12000 FEET WITH NO
SIGNIFICANT WEATHER AND/OR OBSTRUCTIONS TO VISIBILITY.

MTZ001>007-043-262200-
WEST OF THE DIVIDE

CITY           SKY/WX    TMP DP  RH WIND       PRES   REMARKS
KALISPELL      PTSUNNY   66  54  65 S3        29.89F
MISSOULA       FAIR      72  52  49 NW12      29.89F
BUTTE          FAIR      67  44  43 W18G28    29.91S
MULLAN PASS    CLOUDY    44  44 100 NW6       30.03F
ANACONDA         N/A     63  46  55 NE8       29.92S
DEER LODGE       N/A     64  46  52 MISG      29.93R
HAMILTON         N/A     70  46  43 MISG      29.90F
RONAN            N/A     70  52  52 VRB7      29.91F
$$

MTZ008-052>055-262200-
SOUTHWEST MONTANA

CITY           SKY/WX    TMP DP  RH WIND       PRES   REMARKS
BOZEMAN        FAIR      76  48  37 W5        29.84F
DILLON         FAIR      66  51  58 N9        29.84F
ENNIS          MOSUNNY   73  48  40 N10       29.90F
W YELLOWSTONE  FAIR      70  34  26 VRB5      29.93F
$$

MTZ009-010-012-014-046-048-049-054-262200-
EAST SLOPES AND CENTRAL MONTANA

CITY           SKY/WX    TMP DP  RH WIND       PRES   REMARKS
CUT BANK       FAIR      70  45  40 NW13      29.87S
GREAT FALLS    FAIR      78  47  33 VRB6G17   29.83S
HELENA         FAIR      71  48  43 W12       29.84R
CHOTEAU          N/A     72  48  43 N16G23    29.88S
WHITE SULPHUR    N/A     73  46  38 VRB3      29.85F
$$

MTZ011-013-016-021-045-047-050-051-262200-
NORTH CENTRAL MONTANA

CITY           SKY/WX    TMP DP  RH WIND       PRES   REMARKS
HAVRE          FAIR      84  46  26 SW12G18   29.72S
LEWISTOWN      FAIR      77  52  41 N10       29.83S
N BAR RANCH    FAIR      77  55  47 E7G13     29.85R
CHINOOK          N/A     84  50  30 W5        29.72
$$

MTZ017>020-022>027-061-062-262200-
NORTHEAST MONTANA

CITY           SKY/WX    TMP DP  RH WIND       PRES   REMARKS
GLASGOW        FAIR      89  52  28 SE12G22   29.70S
GLENDIVE       FAIR      88  53  30 E7        29.70F
JORDAN           N/A     87  58  37 S6        29.69F
MALTA          MOSUNNY   86  54  32 S7G15     29.67S
SIDNEY         FAIR      87  57  35 E8        29.71F
WOLF POINT     FAIR      91  54  28 MISG      29.69F
PLENTYWOOD       N/A     88  46  23 CALM      29.72F
POPLAR           N/A     88  52  29 SE12      29.70F
$$

MTZ028>42-056>058-262200-
SOUTHCENTRAL AND SOUTHEAST MONTANA

CITY           SKY/WX    TMP DP  RH WIND       PRES   REMARKS
BAKER          FAIR      88  56  33 E14G23    29.74F
BILLINGS       PTSUNNY   77  57  50 NW8       29.76S
LIVINGSTON     FAIR      78  53  41 NW14      29.82S
MILES CITY     FAIR      88  60  38 SE10      29.68F
BIG TIMBER     SUNNY     77  55  47 NE6       29.83S
FORSYTH          N/A     86  57  37 MISG      29.67
LAUREL           N/A     73  61  64 NW8       29.76F
$$

REGIONAL REPORTS...DAKOTAS

CITY           SKY/WX    TMP DP  RH WIND       PRES   REMARKS
WILLISTON      FAIR      90  45  21 CALM      29.72F
MINOT          FAIR      92  43  18 W14       29.70F
DICKINSON      FAIR      91  48  22 SE7       29.73F
BEACH          FAIR      88  50  27 SE13G22   29.77F
CROSBY         FAIR      88  41  19 W9G16     29.72S
TIOGA          FAIR      86  45  23 SW8G14    29.76F
WATFORD CITY   FAIR      90  46  22 SE9       29.71F
BISMARCK       FAIR      92  50  23 SW6       29.73F
GRAND FORKS    FAIR      91  53  27 W13G28    29.65S
FARGO          FAIR      93  48  21 W22G28    29.67S
BUFFALO SD       N/A     90  52  27 SE21G30   29.67F
RAPID CITY     FAIR      87  63  44 S14       29.74F
$$

REGIONAL REPORTS...WYOMING/IDAHO/WASHINGTON

CITY           SKY/WX    TMP DP  RH WIND       PRES   REMARKS
GILLETTE       FAIR      91  29  11 SW18G28   29.76F
SHERIDAN       FAIR      83  61  47 NW12      29.74F
BUFFALO WY     FAIR      81  52  36 N15       29.81S
CODY           FAIR      79  49  34 E12       29.82F
YELLOWSTONE LA   N/A     62  31  31 VRB3      30.02F
IDAHO FALLS    FAIR      74  41  30 W13       29.86F
SALMON         FAIR      72  50  45 N9G23     29.80R
BOISE          CLOUDY    72  49  44 NW17G26   29.86R
SPOKANE        FAIR      69  43  38 S14G23    29.96S
$$

REGIONAL REPORTS...ALBERTA

CITY           SKY/WX    TMP DP  RH WIND       PRES   REMARKS
CALGARY        MOSUNNY   70  39  32 SE7       29.81F
CARDSTON         N/A     66  54  63 S3          N/A
EDMONTON       SUNNY     66  34  30 W8        29.79S
FORT MCMURRAY  MOSUNNY   68  36  30 W13G26    29.62R
HIGH LEVEL     PTSUNNY   55  45  67 W5        29.64R
LETHBRIDGE     PTSUNNY   68  46  45 W5        29.83F
LLOYDMINSTER   PTSUNNY   72  39  30 NW16G24   29.72F
MEDICINE HAT   PTSUNNY   79  48  34 NW14      29.73R
MILK RIVER       N/A     66  50  55 NW15        N/A
ONEFOUR          N/A     79  48  34 NW16G24     N/A
PEACE RIVER    MOSUNNY   64  28  25 W17G23    29.73S
PINCHER CREEK    N/A     64  52  63 SE18      29.85
WATERTON GATE    N/A     66  52  59 NW2         N/A
$$

REGIONAL REPORTS...SASKATCHEWAN

CITY           SKY/WX    TMP DP  RH WIND       PRES   REMARKS
CORONACH         N/A     84  46  26 NE2         N/A
CYPRESS HILLS    N/A     72  45  37 N7          N/A
ESTEVAN        CLOUDY    88  48  25 S9        29.70F
MOOSE JAW        N/A     84  48  28 SE10        N/A
PRINCE ALBERT  CLOUDY    72  57  60 E5        29.69F
REGINA         PTSUNNY   81  54  39 W6        29.67S
ROCKGLEN         N/A     84  43  23 S12G18      N/A
SASKATOON      PTSUNNY   70  59  68 E22G30    29.62F
SWIFT CURRENT  MOSUNNY   84  50  30 W14G22    29.68S
VAL MARIE        N/A     84  45  24 S13G20      N/A
$$




USA.gov is the U.S. government's official web portal to all federal, state and local government web resources and services.